[[{"header":{"parameterUnit":"m.s-1","parameterCategory":1,"la1":30.2991,"la2":30.254,"lo1":-89.0895,"lo2":-89.0444,"dy":0.0017,"dx":0.0017,"nx":28,"ny":28,"refTime":"2025-07-02T21:00:00:Z","depth":0,"parameterNumber":2,"parameterNumberName":"U-component_of_WINDS"},"data":[0,0,0,0,0,0,0,0,0,0,0,0,0,0,0,0,0,0,0,0,0,0,0,0,0,0,0,0,0,0,0,0,0,0,0,0,0,0,0,0,0,0,0,0,0,0,0,0,0,0,0,0,0,0,0,0,0,0,0.7978,0.7977,0,0.7867,0.7866,0.7865,0.7766,0.7765,0.7763,0.7762,0.7655,0.7653,0.7652,0,0,0,0,0,0,0,0,0,0,0,0,0,0.8112,0.811,0.7979,0.7977,0.7976,0.7867,0.7866,0.7864,0.7766,0.7765,0.7763,0.7762,0.7656,0.7654,0.7651,0,0,0,0,0,0,0,0,0,0,0,0,0,0.8033,0.8109,0.7979,0.7913,0.7906,0.7868,0.7866,0.7864,0.7766,0.7765,0.7763,0.7761,0.7656,0.7654,0.7651,0.767,0,0,0.7643,0.7642,0,0,0,0,0,0,0,0,0.8037,0.8028,0.7924,0.7918,0.791,0.7828,0.7873,0.7799,0.7767,0.782,0.7762,0.776,0.7715,0.7707,0.769,0.7665,0.7661,0.7643,0.7641,0.764,0.7639,0,0,0,0,0,0,0,0.8043,0.8032,0.7935,0.7923,0.7914,0.7892,0.7878,0.7859,0.7779,0.7815,0.7807,0.7795,0.771,0.7693,0.7687,0.7659,0.7643,0.7641,0.7639,0.7638,0.7643,0.7645,0,0,0,0,0,0,0.8058,0.8037,0.7938,0.7931,0.797,0.7891,0.7876,0.7857,0.7778,0.7765,0.7797,0.7791,0.7698,0.769,0.7683,0.7699,0.764,0.7638,0.7636,0.7641,0.7644,0.7645,0,0,0,0,0,0,0.8061,0.805,0.7943,0.7982,0.7967,0.789,0.7869,0.7855,0.7838,0.7765,0.7751,0.7794,0.7697,0.7687,0.7673,0.7694,0.7636,0.7634,0.7639,0.7642,0.7644,0.7732,0,0,0,0,0,0,0.8065,0.8051,0.8056,0.7983,0.7965,0.7934,0.787,0.7854,0.7833,0.7824,0.7758,0.7745,0.7695,0.7678,0.7671,0.7689,0.7632,0.7637,0.7641,0.7644,0.7727,0.7738,0.7747,0,0,0,0,0,0.807,0.8087,0.8057,0.8046,0.7969,0.7935,0.7925,0.7864,0.7835,0.784,0.7793,0.7747,0.7693,0.7677,0.7669,0.7687,0.7636,0.764,0.7643,0.7723,0.7736,0.7746,0,0,0,0,0,0,0.8168,0.8077,0.8042,0.8036,0.7993,0.7918,0.7923,0.788,0.7847,0.784,0.7768,0.7754,0.7749,0.7717,0.7701,0.7701,0.7658,0.7661,0.7722,0.7733,0.7743,0.775,0.763,0,0,0,0,0,0.8188,0.8166,0.8088,0.809,0.807,0.8001,0.7983,0.794,0.7894,0.7877,0.7829,0.7788,0.7761,0.7746,0.7717,0.7722,0.7707,0.7731,0.774,0.7748,0.7751,0.7751,0.776,0.7658,0.7658,0.7658,0,0,0.8231,0.8178,0.8169,0.8108,0.807,0.805,0.7986,0.7968,0.7953,0.7875,0.7858,0.7822,0.7772,0.7767,0.7763,0.774,0.7776,0.7753,0.7761,0.7759,0.7756,0.7765,0.7774,0.7661,0.766,0.766,0,0,0.8298,0.8256,0.8252,0.8215,0.8158,0.8111,0.8111,0.8041,0.8013,0.7995,0.7936,0.7918,0.7874,0.784,0.7817,0.7871,0.7828,0.7864,0.7914,0.7915,0.7923,0.793,0.7948,0.7956,0.7867,0.7868,0.7868,0,0.8359,0.8324,0.8257,0.8241,0.8216,0.8142,0.8138,0.8107,0.8044,0.803,0.8004,0.7946,0.7908,0.7894,0.7907,0.7891,0.7889,0.7871,0.7927,0.7933,0.7938,0.7955,0.7962,0.7872,0.7872,0.7871,0.7871,0,0.8402,0.8379,0.8383,0.8321,0.8297,0.8288,0.8221,0.8205,0.8164,0.8121,0.8103,0.8054,0.8014,0.8007,0.7969,0.7988,0.7975,0.794,0.7895,0.7954,0.7968,0.7974,0.7879,0.7877,0.7876,0.7875,0,0,0.8528,0.8427,0.843,0.8401,0.8332,0.8313,0.8302,0.826,0.8247,0.8207,0.8196,0.816,0.8125,0.81,0.8056,0.8057,0.8101,0.802,0.8018,0.8036,0.812,0.8147,0.8155,0.8072,0.8073,0.8074,0.8124,0,0.8583,0.8554,0.8492,0.8484,0.8461,0.8391,0.838,0.8338,0.8297,0.8274,0.823,0.8205,0.8162,0.8145,0.8143,0.8097,0.8117,0.8092,0.8062,0.8062,0.8076,0.8163,0.8191,0.824,0.8129,0.813,0.8131,0,0.8643,0.8604,0.8593,0.8523,0.8512,0.8503,0.846,0.8438,0.8389,0.8359,0.833,0.8281,0.8266,0.8226,0.8204,0.8189,0.8173,0.8148,0.8149,0.8143,0.8099,0.8159,0.8254,0.8262,0.8139,0.8138,0.8138,0,0.8735,0.868,0.8665,0.8643,0.8562,0.8558,0.8525,0.8473,0.8452,0.8415,0.84,0.8363,0.8343,0.8316,0.8259,0.8235,0.8243,0.8199,0.8219,0.8221,0.8224,0.8224,0.8317,0.8215,0.8215,0.8215,0.8215,0,0.8803,0.8799,0.8705,0.8697,0.869,0.862,0.8616,0.8576,0.8531,0.8514,0.8452,0.8438,0.8364,0.8342,0.8298,0.8286,0.8278,0.8254,0.8242,0.8259,0.8262,0.8247,0.8242,0.8217,0.8216,0.8216,0.8216,0,0.8905,0.8842,0.8821,0.8746,0.8727,0.8725,0.8661,0.8651,0.8606,0.8586,0.8577,0.8507,0.8478,0.8418,0.8374,0.8344,0.8342,0.8322,0.8358,0.8351,0.8374,0.8372,0.846,0.8468,0.8363,0.8364,0.8365,0,0.8952,0.8946,0.8869,0.8852,0.882,0.8794,0.8771,0.8703,0.8682,0.8625,0.8622,0.8587,0.8555,0.8512,0.8459,0.8424,0.8401,0.8435,0.8396,0.8413,0.8401,0.8402,0.84,0.8443,0.8445,0.8446,0.8447,0,0.9041,0.901,0.8978,0.8935,0.8909,0.8872,0.8833,0.8823,0.8746,0.8726,0.8694,0.8669,0.8622,0.8588,0.8545,0.8513,0.8468,0.846,0.8462,0.8479,0.85,0.8488,0.8381,0.8458,0.8457,0.8456,0.8455,0.8455,0.9116,0.9107,0.9051,0.9018,0.898,0.8944,0.893,0.8882,0.8854,0.8808,0.877,0.8741,0.8692,0.8629,0.86,0.8577,0.8555,0.8559,0.856,0.8562,0.8569,0.8504,0.8569,0.8569,0.8568,0.8568,0.8568,0,0.9202,0.9162,0.9132,0.9077,0.905,0.9008,0.8962,0.8943,0.8917,0.8874,0.8844,0.8807,0.8773,0.8717,0.8679,0.8672,0.865,0.8665,0.8664,0.8657,0.8591,0.8592,0.8683,0.8683,0.8683,0.8683,0.8683,0.8683,0.9244,0.9226,0.9188,0.9152,0.9112,0.9081,0.9058,0.9025,0.899,0.8951,0.8922,0.8884,0.8836,0.8794,0.8762,0.8746,0.8735,0.8756,0.8734,0.8673,0.8662,0.8652,0.8652,0.8754,0.8754,0.8802,0.8802,0.8802]},{"header":{"parameterUnit":"m.s-1","parameterCategory":1,"la1":30.2991,"la2":30.254,"lo1":-89.0895,"lo2":-89.0444,"dy":0.0017,"dx":0.0017,"nx":28,"ny":28,"refTime":"2025-07-02T21:00:00:Z","depth":0,"parameterNumber":3,"parameterNumberName":"V-component_of_WINDS"},"data":[0,0,0,0,0,0,0,0,0,0,0,0,0,0,0,0,0,0,0,0,0,0,0,0,0,0,0,0,0,0,0,0,0,0,0,0,0,0,0,0,0,0,0,0,0,0,0,0,0,0,0,0,0,0,0,0,0,0,-1.1369,-1.137,0,-1.148,-1.1481,-1.1482,-1.152,-1.152,-1.1519,-1.1519,-1.1636,-1.1639,-1.1643,0,0,0,0,0,0,0,0,0,0,0,0,0,-1.1192,-1.1195,-1.1369,-1.137,-1.1371,-1.148,-1.1481,-1.1483,-1.152,-1.152,-1.1519,-1.1519,-1.1634,-1.1639,-1.1643,0,0,0,0,0,0,0,0,0,0,0,0,0,-1.1283,-1.1196,-1.1368,-1.1403,-1.1407,-1.1479,-1.1481,-1.1483,-1.152,-1.152,-1.1519,-1.1518,-1.1633,-1.1638,-1.1643,-1.169,0,0,-1.166,-1.1662,0,0,0,0,0,0,0,0,-1.1277,-1.1289,-1.1397,-1.1401,-1.1406,-1.1485,-1.1462,-1.1552,-1.1521,-1.1478,-1.1519,-1.1518,-1.1586,-1.1595,-1.1618,-1.1695,-1.17,-1.166,-1.1663,-1.1666,-1.1667,0,0,0,0,0,0,0,-1.1271,-1.1284,-1.1413,-1.1398,-1.1404,-1.1414,-1.1426,-1.1479,-1.1535,-1.1481,-1.1484,-1.1497,-1.1589,-1.1613,-1.1621,-1.1702,-1.166,-1.1665,-1.1668,-1.167,-1.1824,-1.1825,0,0,0,0,0,0,-1.1259,-1.1279,-1.1409,-1.1416,-1.1338,-1.1418,-1.1431,-1.1461,-1.1534,-1.1545,-1.1497,-1.1498,-1.1604,-1.1615,-1.1625,-1.1686,-1.1666,-1.1671,-1.1674,-1.1823,-1.1824,-1.1825,0,0,0,0,0,0,-1.1255,-1.127,-1.1405,-1.1348,-1.1366,-1.1422,-1.1454,-1.1463,-1.1487,-1.1546,-1.1556,-1.1511,-1.1604,-1.1618,-1.1674,-1.169,-1.1673,-1.1678,-1.1822,-1.1824,-1.1825,-1.1806,0,0,0,0,0,0,-1.1249,-1.1268,-1.1286,-1.1348,-1.1369,-1.145,-1.1455,-1.1466,-1.1496,-1.1498,-1.1562,-1.1572,-1.1604,-1.1665,-1.1679,-1.1697,-1.1682,-1.1821,-1.1823,-1.1824,-1.1805,-1.1806,-1.1807,0,0,0,0,0,-1.1243,-1.1276,-1.1286,-1.1302,-1.1392,-1.1451,-1.1463,-1.1499,-1.1497,-1.1516,-1.1553,-1.157,-1.1685,-1.1671,-1.1686,-1.1706,-1.182,-1.1822,-1.1824,-1.1805,-1.1806,-1.1807,0,0,0,0,0,0,-1.1216,-1.1285,-1.1297,-1.1352,-1.1395,-1.1457,-1.1482,-1.1499,-1.1545,-1.1545,-1.1588,-1.1602,-1.1655,-1.1686,-1.1668,-1.1755,-1.1754,-1.1759,-1.1734,-1.1735,-1.1736,-1.1729,-1.1686,0,0,0,0,0,-1.1215,-1.1256,-1.1316,-1.1358,-1.1379,-1.1427,-1.1454,-1.1477,-1.1524,-1.1543,-1.1585,-1.1631,-1.1678,-1.1708,-1.1754,-1.1809,-1.1824,-1.183,-1.1831,-1.1832,-1.1837,-1.1869,-1.1873,-1.1832,-1.1832,-1.1832,0,0,-1.1217,-1.126,-1.1283,-1.1354,-1.139,-1.1433,-1.1442,-1.1487,-1.1519,-1.155,-1.1606,-1.1638,-1.1692,-1.1748,-1.1774,-1.1775,-1.1851,-1.1834,-1.1834,-1.1839,-1.1872,-1.1875,-1.1879,-1.1833,-1.1833,-1.1833,0,0,-1.1241,-1.1277,-1.1317,-1.1352,-1.1407,-1.1438,-1.1448,-1.1507,-1.153,-1.1585,-1.161,-1.165,-1.1729,-1.1767,-1.1796,-1.1834,-1.1852,-1.1848,-1.1854,-1.1885,-1.1888,-1.1891,-1.1906,-1.1911,-1.1852,-1.1852,-1.1852,0,-1.1236,-1.13,-1.1335,-1.1379,-1.141,-1.1438,-1.1479,-1.1513,-1.158,-1.1601,-1.16,-1.1701,-1.1739,-1.1805,-1.1814,-1.1836,-1.185,-1.1842,-1.1885,-1.1888,-1.1892,-1.1907,-1.1912,-1.1851,-1.1851,-1.1851,-1.1851,0,-1.1292,-1.1336,-1.1362,-1.1425,-1.1459,-1.1501,-1.1543,-1.1573,-1.1593,-1.1624,-1.1682,-1.1728,-1.1785,-1.1802,-1.1822,-1.187,-1.1869,-1.1876,-1.1876,-1.1894,-1.1909,-1.1915,-1.185,-1.185,-1.185,-1.1851,0,0,-1.1304,-1.1385,-1.1394,-1.1423,-1.1485,-1.1521,-1.1564,-1.1618,-1.1644,-1.1689,-1.1728,-1.1793,-1.18,-1.1834,-1.1858,-1.1885,-1.1914,-1.1889,-1.1891,-1.1894,-1.1972,-1.1968,-1.1974,-1.1925,-1.1926,-1.1927,-1.1968,0,-1.1338,-1.1416,-1.1449,-1.1513,-1.1555,-1.1582,-1.162,-1.1663,-1.1693,-1.1734,-1.1768,-1.1814,-1.1818,-1.1839,-1.1867,-1.1904,-1.1931,-1.1902,-1.1963,-1.1965,-1.1951,-1.1981,-1.1978,-1.2014,-1.1974,-1.1975,-1.1975,0,-1.1388,-1.1433,-1.15,-1.1557,-1.1576,-1.161,-1.1662,-1.17,-1.1749,-1.177,-1.1806,-1.183,-1.1878,-1.1872,-1.194,-1.1919,-1.1946,-1.1968,-1.1971,-1.198,-1.1973,-1.1993,-1.2026,-1.2033,-1.1985,-1.1984,-1.1983,0,-1.1393,-1.1469,-1.152,-1.1544,-1.1611,-1.1634,-1.1663,-1.1711,-1.1742,-1.1788,-1.1808,-1.1859,-1.1888,-1.1927,-1.1964,-1.1956,-1.2029,-1.2026,-1.2049,-1.2048,-1.2065,-1.2064,-1.2105,-1.2078,-1.2078,-1.2078,-1.2078,0,-1.1428,-1.1469,-1.1523,-1.1554,-1.1601,-1.1638,-1.1684,-1.1715,-1.1757,-1.1796,-1.1822,-1.1858,-1.1903,-1.1946,-1.1974,-1.2027,-1.2039,-1.2058,-1.2066,-1.2057,-1.2055,-1.2077,-1.2076,-1.2079,-1.2079,-1.2079,-1.2078,0,-1.1442,-1.1479,-1.1537,-1.1595,-1.161,-1.1643,-1.1693,-1.1725,-1.1756,-1.1805,-1.1818,-1.1867,-1.1918,-1.1958,-1.2024,-1.2044,-1.21,-1.2107,-1.2083,-1.2088,-1.2109,-1.2107,-1.2168,-1.2178,-1.2142,-1.2142,-1.2142,0,-1.1464,-1.1496,-1.1557,-1.1584,-1.1613,-1.1656,-1.1688,-1.1725,-1.1756,-1.1814,-1.1839,-1.1892,-1.1936,-1.2016,-1.2059,-1.211,-1.212,-1.2137,-1.2128,-1.2119,-1.2123,-1.2121,-1.2126,-1.2139,-1.214,-1.214,-1.214,0,-1.1499,-1.1515,-1.1558,-1.1608,-1.1644,-1.1685,-1.1727,-1.1748,-1.1793,-1.1827,-1.1879,-1.1913,-1.198,-1.2033,-1.2088,-1.212,-1.2138,-1.2142,-1.215,-1.2143,-1.2129,-1.2139,-1.2089,-1.2141,-1.2141,-1.2141,-1.2141,-1.2141,-1.1519,-1.1549,-1.1596,-1.1644,-1.1679,-1.1717,-1.175,-1.1785,-1.1828,-1.1885,-1.1904,-1.1958,-1.2007,-1.2083,-1.2114,-1.2158,-1.2159,-1.217,-1.2174,-1.2177,-1.2177,-1.2119,-1.2168,-1.2168,-1.2168,-1.2168,-1.2168,0,-1.1557,-1.1588,-1.1631,-1.1689,-1.1726,-1.1737,-1.1784,-1.1816,-1.1862,-1.1905,-1.1948,-1.2007,-1.2058,-1.2104,-1.2157,-1.2183,-1.2193,-1.2196,-1.2196,-1.2203,-1.2172,-1.216,-1.2187,-1.2187,-1.2187,-1.2187,-1.2187,-1.2187,-1.1581,-1.1633,-1.1655,-1.1725,-1.1756,-1.1809,-1.1834,-1.187,-1.1905,-1.197,-1.2012,-1.2041,-1.2085,-1.2142,-1.2189,-1.2201,-1.2221,-1.2222,-1.2237,-1.2207,-1.2205,-1.2203,-1.2192,-1.2225,-1.2225,-1.2265,-1.2265,-1.2265]}]]